Погода в Рождестве

Россия / Тверская область     57°36′01″N   33°48′04″E
темп.,
°C
ветер,
м/с
пор.,
м/с
влажн.,
%
обл.,
%
осадки,
мм/ч
давл.,
гПа
погр.,
м
4 марта, чт
чт400:00+1з71397100 0.6 1003931
03:00+1з71596100 2.3 10011113
06:00−1сз51183100 1.3 1001948
09:00−3сз498895 1.4 1001681
12:00−1сз46713 0.0 1001902
15:00−1сз46661 0.0 10021249
18:00−3сз268222 0.3 1002222
21:00−5зсз239339 0.3 100371
5 марта, пт
пт500:00−5сз379187 0.4 1004580
03:00−7сз388888 0.4 1006451
06:00−7зсз379269 0.1 1007597
09:00−7сз378684 0.1 1008679
12:00−5сз3574100 0.1 1009960
15:00−4сз4568100 0.3 10111142
18:00−6сз378097 0.3 1012418
21:00−8ссз279470 0.3 1014272
6 марта, сб
сб600:00−10с129224 0.0 101650
03:00−11сз129312 0.0 101724
06:00−11з228840 0.0 1018103
09:00−9з378667 0.0 1018432
12:00−6зсз467397 0.1 10171071
15:00−5з477198 0.1 10151134
18:00−6юз4973100 0.0 1012944
21:00−6юз71490100 0.2 10081076
7 марта, вс
вс700:00−4юз81691100 1.1 10021331
03:00−3зюз81692100 3.0 9971251
06:00−3юз81692100 1.8 9921259
09:00−6сз61071100 4.2 9921227
12:00−4з495925 0.0 9921705
15:00−5з7116162 0.7 9931937
18:00−7зсз61269100 0.8 9931588
21:00−10з399389 1.0 994705
8 марта, пн
пн800:00−11ссз389498 0.4 997327
03:00−12сз4119286 0.4 1000530
06:00−12сз4119196 0.1 1003693
09:00−12ссз598898 0.2 1006838
12:00−10сз5881100 0.1 1009882
15:00−11ссз5882100 0.3 1012795
18:00−12ссз51086100 0.1 1014763
21:00−14ссз4992100 0.1 1017580